Tracking 19909 objects as of 22-Oct-2019
HD Live streaming from Space Station
objects crossing your sky now

SL-6 DEB

Track SL-6 DEB now!
10-day predictions


NORAD ID: 18598
Int'l Code: 1981-088N
Perigee: 338.0 km
Apogee: 13,258.7 km
Inclination: 62.9 °
Period: 250.7 minutes
Semi major axis: 13169 km
RCS: 0.1262 m2 (medium)
Launch date: September 11, 1981
Source: Commonwealth of Independent States (former USSR) (CIS)
Launch site: PLESETSK MISSILE AND SPACE COMPLEX (PKMTR)

Note: This is SATELLITE DEBRIS
aabbcc
Your satellite tracking list
Your tracking list is empty




NASA's NSSDC Master Catalog

Two Line Element Set (TLE):
1 18598U 81088N   19292.11607712  .00000687  00000-0  13591-3 0  9997
2 18598  62.8995 202.5562 4905608 238.2021  64.8491  5.74456874776624
Source of the keplerian elements: AFSPC